Terminal Aerodrome Forecast
Issued by NWS Blacksburg, VA

Home | Current Version | Previous Version | Text Only | Print | Product List | Glossary On
Versions: 1 2 3 4 5 6 7 8 9 10 11 12 13 14 15 16 17 18 19 20 21 22 23 24 25 26 27 28 29 30 31 32 33 34 35 36 37 38 39 40 41
000
FTUS41 KRNK 221140
TAFLYH
TAF
KLYH 221140Z 2212/2312 VRB03KT P6SM SCT035 BKN090
      TEMPO 2212/2216 6SM -SHRA BKN035 OVC070
     FM221900 30006KT P6SM VCTS SCT040CB BKN120
      TEMPO 2220/2222 4SM TSRA OVC030CB
     FM230000 29005KT P6SM SCT090 OVC250
     FM230600 02003KT 4SM BR BKN015 BKN100
      AMD NOT SKED=

USA.gov is the U.S. government's official web portal to all federal, state and local government web resources and services.